| time (UTC) | temp C | wind direction | speed KPH | gust KPH | rain 1hr cm | rain 24hr cm | rain mn cm | humidity % | barometer mb |
| 20260505082808 | 23 | 355 | 3.2 | 4.8 | 0.00 | 0.00 | 0.00 | 88 | 1016.6 |
| 20260505082305 | 23 | 31 | 4.8 | 4.8 | 0.00 | 0.00 | 0.00 | 88 | 1016.4 |
| 20260505081801 | 23 | 34 | 3.2 | 3.2 | 0.00 | 0.00 | 0.00 | 88 | 1016.4 |
| 20260505081258 | 23 | 347 | 4.8 | 4.8 | 0.00 | 0.00 | 0.00 | 89 | 1016.3 |
| 20260505080754 | 23 | 327 | 3.2 | 3.2 | 0.00 | 0.00 | 0.00 | 89 | 1016.3 |
| 20260505080250 | 22 | 16 | 3.2 | 3.2 | 0.00 | 0.00 | 0.00 | 89 | 1016.4 |
| 20260505075746 | 23 | 18 | 3.2 | 3.2 | 0.00 | 0.00 | 0.00 | 89 | 1016.5 |
| 20260505075243 | 22 | 40 | 3.2 | 4.8 | 0.00 | 0.00 | 0.00 | 89 | 1016.2 |
| 20260505074740 | 22 | 7 | 3.2 | 3.2 | 0.00 | 0.00 | 0.00 | 89 | 1016.2 |
| 20260505074238 | 23 | 1 | 3.2 | 3.2 | 0.00 | 0.00 | 0.00 | 88 | 1016.4 |
| 20260505073735 | 23 | 299 | 1.6 | 3.2 | 0.00 | 0.00 | 0.00 | 88 | 1016.1 |
| 20260505073233 | 23 | 44 | 6.4 | 6.4 | 0.00 | 0.00 | 0.00 | 88 | 1016.1 |
| 20260505072729 | 23 | 245 | 3.2 | 3.2 | 0.00 | 0.00 | 0.00 | 88 | 1016.2 |
| 20260505072225 | 23 | 2 | 1.6 | 3.2 | 0.00 | 0.00 | 0.00 | 88 | 1016.3 |
| 20260505071721 | 23 | 41 | 3.2 | 4.8 | 0.00 | 0.00 | 0.00 | 88 | 1016.4 |
| 20260505071218 | 23 | 344 | 3.2 | 3.2 | 0.00 | 0.00 | 0.00 | 87 | 1016.4 |
| 20260505070716 | 23 | 14 | 3.2 | 3.2 | 0.00 | 0.00 | 0.00 | 87 | 1016.2 |
| 20260505070212 | 23 | 346 | 3.2 | 4.8 | 0.00 | 0.00 | 0.00 | 87 | 1016.4 |
| 20260505065708 | 23 | 23 | 3.2 | 3.2 | 0.00 | 0.00 | 0.00 | 87 | 1016.4 |
| 20260505065205 | 23 | 344 | 1.6 | 3.2 | 0.00 | 0.00 | 0.00 | 87 | 1016.2 |
| 20260505064702 | 23 | 318 | 3.2 | 3.2 | 0.00 | 0.00 | 0.00 | 87 | 1016.4 |
| 20260505064200 | 23 | 8 | 3.2 | 3.2 | 0.00 | 0.00 | 0.00 | 87 | 1016.2 |
| 20260505063657 | 23 | 3 | 4.8 | 4.8 | 0.00 | 0.00 | 0.00 | 87 | 1016.2 |
| 20260505063153 | 23 | 305 | 1.6 | 3.2 | 0.00 | 0.00 | 0.00 | 87 | 1016.3 |
| 20260505062649 | 23 | 70 | 3.2 | 4.8 | 0.00 | 0.00 | 0.00 | 86 | 1016.4 |
| 20260505062147 | 23 | 359 | 3.2 | 4.8 | 0.00 | 0.00 | 0.00 | 86 | 1016.4 |
| 20260505061644 | 23 | 304 | 3.2 | 3.2 | 0.00 | 0.00 | 0.00 | 86 | 1016.5 |
| 20260505061142 | 23 | 36 | 4.8 | 4.8 | 0.00 | 0.00 | 0.00 | 86 | 1016.5 |
| 20260505060639 | 23 | 295 | 3.2 | 3.2 | 0.00 | 0.00 | 0.00 | 85 | 1016.5 |
| 20260505060136 | 23 | 47 | 3.2 | 4.8 | 0.00 | 0.00 | 0.00 | 86 | 1016.7 |
| 20260505055631 | 23 | 354 | 3.2 | 3.2 | 0.00 | 0.00 | 0.00 | 85 | 1016.8 |
| 20260505055128 | 23 | 295 | 1.6 | 3.2 | 0.00 | 0.00 | 0.00 | 85 | 1016.6 |
| 20260505054625 | 23 | 9 | 3.2 | 3.2 | 0.00 | 0.00 | 0.00 | 85 | 1016.9 |
| 20260505054123 | 23 | 18 | 3.2 | 3.2 | 0.00 | 0.00 | 0.00 | 84 | 1017.0 |
| 20260505053620 | 23 | 34 | 3.2 | 4.8 | 0.00 | 0.00 | 0.00 | 85 | 1016.9 |
| 20260505053117 | 23 | 310 | 3.2 | 3.2 | 0.00 | 0.00 | 0.00 | 84 | 1016.8 |
| 20260505052614 | 23 | 291 | 1.6 | 1.6 | 0.00 | 0.00 | 0.00 | 84 | 1017.0 |
| 20260505052111 | 23 | 20 | 3.2 | 3.2 | 0.00 | 0.00 | 0.00 | 84 | 1017.2 |
| 20260505051608 | 23 | 43 | 3.2 | 3.2 | 0.00 | 0.00 | 0.00 | 83 | 1017.2 |
| 20260505051106 | 23 | 51 | 3.2 | 4.8 | 0.00 | 0.00 | 0.00 | 84 | 1017.3 |
| 20260505050604 | 23 | 351 | 4.8 | 4.8 | 0.00 | 0.00 | 0.00 | 85 | 1017.4 |
| 20260505041531 | 23 | 55 | 3.2 | 4.8 | 0.00 | 0.00 | 0.00 | 85 | 1017.9 |
| 20260505041029 | 23 | 4 | 3.2 | 4.8 | 0.00 | 0.00 | 0.00 | 85 | 1018.0 |
| 20260505040526 | 23 | 51 | 3.2 | 4.8 | 0.00 | 0.00 | 0.00 | 84 | 1017.9 |
| 20260505040023 | 23 | 34 | 3.2 | 4.8 | 0.00 | 0.00 | 0.00 | 85 | 1017.8 |
| 20260505035519 | 24 | 313 | 3.2 | 3.2 | 0.00 | 0.00 | 0.00 | 84 | 1018.0 |
| 20260505035016 | 24 | 284 | 0.0 | 1.6 | 0.00 | 0.00 | 0.00 | 84 | 1018.0 |
| 20260505034512 | 24 | 351 | 3.2 | 3.2 | 0.00 | 0.00 | 0.00 | 84 | 1018.0 |
| 20260505034010 | 24 | 318 | 1.6 | 1.6 | 0.00 | 0.00 | 0.00 | 85 | 1018.0 |
| 20260505033507 | 24 | 34 | 3.2 | 3.2 | 0.00 | 0.00 | 0.00 | 85 | 1018.0 |
| 20260505033005 | 24 | 293 | 1.6 | 3.2 | 0.00 | 0.00 | 0.00 | 85 | 1018.2 |
| 20260505032502 | 24 | 15 | 3.2 | 4.8 | 0.00 | 0.00 | 0.00 | 85 | 1018.3 |
| 20260505031958 | 24 | 333 | 3.2 | 3.2 | 0.00 | 0.00 | 0.00 | 84 | 1018.1 |
| 20260505031455 | 24 | 359 | 4.8 | 4.8 | 0.00 | 0.00 | 0.00 | 84 | 1018.1 |
| 20260505030952 | 25 | 344 | 4.8 | 4.8 | 0.00 | 0.00 | 0.00 | 83 | 1018.1 |
| 20260505030448 | 25 | 312 | 1.6 | 3.2 | 0.00 | 0.00 | 0.00 | 83 | 1018.1 |
| 20260505025943 | 25 | 11 | 3.2 | 3.2 | 0.00 | 0.00 | 0.00 | 84 | 1018.1 |
| 20260505025441 | 25 | 317 | 3.2 | 3.2 | 0.00 | 0.00 | 0.00 | 84 | 1018.2 |
| 20260505024939 | 25 | 315 | 1.6 | 1.6 | 0.00 | 0.00 | 0.00 | 84 | 1018.1 |
| 20260505024437 | 25 | 311 | 3.2 | 3.2 | 0.00 | 0.00 | 0.00 | 84 | 1018.0 |
| 20260505023933 | 25 | 311 | 1.6 | 3.2 | 0.00 | 0.00 | 0.00 | 84 | 1018.1 |
| 20260505023431 | 25 | 343 | 3.2 | 3.2 | 0.00 | 0.00 | 0.00 | 84 | 1017.9 |
| 20260505022928 | 25 | 58 | 3.2 | 4.8 | 0.00 | 0.00 | 0.00 | 84 | 1017.8 |
| 20260505022426 | 25 | 8 | 3.2 | 4.8 | 0.00 | 0.00 | 0.00 | 84 | 1018.0 |
| 20260505021922 | 25 | 292 | 3.2 | 3.2 | 0.00 | 0.00 | 0.00 | 84 | 1017.9 |
| 20260505021418 | 25 | 9 | 3.2 | 4.8 | 0.00 | 0.00 | 0.00 | 83 | 1017.8 |
| 20260505020914 | 25 | 343 | 1.6 | 1.6 | 0.00 | 0.00 | 0.00 | 83 | 1017.9 |
| 20260505020410 | 25 | 337 | 1.6 | 1.6 | 0.00 | 0.00 | 0.00 | 84 | 1017.7 |
| 20260505015907 | 25 | 305 | 1.6 | 3.2 | 0.00 | 0.00 | 0.00 | 84 | 1017.7 |
| 20260505015404 | 25 | 333 | 1.6 | 1.6 | 0.00 | 0.00 | 0.00 | 84 | 1017.7 |
| 20260505014902 | 25 | 298 | 1.6 | 1.6 | 0.00 | 0.00 | 0.00 | 84 | 1017.6 |
| 20260505014358 | 25 | 348 | 1.6 | 3.2 | 0.00 | 0.00 | 0.00 | 84 | 1017.7 |
| 20260505013855 | 25 | 32 | 1.6 | 3.2 | 0.00 | 0.00 | 0.00 | 83 | 1017.5 |
| 20260505013352 | 25 | 298 | 1.6 | 1.6 | 0.00 | 0.00 | 0.00 | 83 | 1017.4 |
| 20260505012851 | 26 | 288 | 0.0 | 0.0 | 0.00 | 0.00 | 0.00 | 81 | 1017.4 |
| 20260505012348 | 26 | 296 | 0.0 | 1.6 | 0.00 | 0.00 | 0.00 | 81 | 1017.3 |
| 20260505011844 | 26 | 223 | 1.6 | 1.6 | 0.00 | 0.00 | 0.00 | 81 | 1017.3 |
| 20260505011341 | 26 | 285 | 0.0 | 1.6 | 0.00 | 0.00 | 0.00 | 79 | 1017.1 |
| 20260505010837 | 26 | 238 | 1.6 | 1.6 | 0.00 | 0.00 | 0.00 | 78 | 1017.4 |
| 20260505010333 | 27 | 273 | 1.6 | 1.6 | 0.00 | 0.00 | 0.00 | 79 | 1017.2 |
| 20260505005829 | 26 | 250 | 1.6 | 1.6 | 0.00 | 0.00 | 0.00 | 78 | 1017.0 |
| 20260505005326 | 27 | 246 | 1.6 | 1.6 | 0.00 | 0.00 | 0.00 | 78 | 1017.1 |
| 20260505004824 | 27 | 30 | 3.2 | 3.2 | 0.00 | 0.00 | 0.00 | 79 | 1016.9 |
| 20260505004320 | 27 | 240 | 1.6 | 1.6 | 0.00 | 0.00 | 0.00 | 78 | 1016.9 |
| 20260505003817 | 27 | 289 | 1.6 | 3.2 | 0.00 | 0.00 | 0.00 | 78 | 1017.0 |
| 20260505003314 | 27 | 250 | 1.6 | 1.6 | 0.00 | 0.00 | 0.00 | 78 | 1016.9 |
| 20260505002810 | 27 | 257 | 1.6 | 1.6 | 0.00 | 0.00 | 0.00 | 78 | 1016.7 |
| 20260505002308 | 27 | 241 | 1.6 | 1.6 | 0.00 | 0.00 | 0.00 | 78 | 1016.9 |
| 20260505001806 | 27 | 252 | 0.0 | 0.0 | 0.00 | 0.00 | 0.00 | 78 | 1016.9 |
| 20260505001303 | 27 | 240 | 3.2 | 3.2 | 0.00 | 0.00 | 0.00 | 78 | 1016.8 |
| 20260505000800 | 27 | 282 | 3.2 | 3.2 | 0.00 | 0.00 | 0.00 | 77 | 1017.0 |
| 20260505000258 | 27 | 266 | 3.2 | 4.8 | 0.00 | 0.00 | 0.00 | 77 | 1017.0 |
| 20260504235754 | 27 | 236 | 1.6 | 1.6 | 0.00 | 0.00 | 0.00 | 77 | 1016.8 |
| 20260504235250 | 27 | 217 | 1.6 | 3.2 | 0.00 | 0.00 | 0.00 | 77 | 1016.9 |
| 20260504234748 | 27 | 352 | 1.6 | 3.2 | 0.00 | 0.00 | 0.00 | 77 | 1016.7 |
| 20260504234245 | 27 | 232 | 3.2 | 4.8 | 0.00 | 0.00 | 0.00 | 78 | 1016.9 |
| 20260504233741 | 27 | 269 | 0.0 | 1.6 | 0.00 | 0.00 | 0.00 | 78 | 1016.9 |
| 20260504233237 | 27 | 266 | 1.6 | 1.6 | 0.00 | 0.00 | 0.00 | 77 | 1016.8 |
| 20260504232734 | 27 | 261 | 0.0 | 0.0 | 0.00 | 0.00 | 0.00 | 77 | 1016.6 |
| 20260504232231 | 27 | 255 | 1.6 | 1.6 | 0.00 | 0.00 | 0.00 | 77 | 1016.6 |
| 20260504231728 | 27 | 262 | 0.0 | 0.0 | 0.00 | 0.00 | 0.00 | 76 | 1016.7 |
| 20260504231224 | 27 | 269 | 0.0 | 0.0 | 0.00 | 0.00 | 0.00 | 76 | 1016.8 |
| 20260504230720 | 27 | 273 | 0.0 | 1.6 | 0.00 | 0.00 | 0.00 | 76 | 1016.7 |
| 20260504230219 | 28 | 165 | 3.2 | 4.8 | 0.00 | 0.00 | 0.00 | 76 | 1016.5 |
| 20260504225717 | 28 | 79 | 1.6 | 1.6 | 0.00 | 0.00 | 0.00 | 76 | 1016.4 |
| 20260504225213 | 28 | 230 | 3.2 | 3.2 | 0.00 | 0.00 | 0.00 | 75 | 1016.5 |
| 20260504224711 | 28 | 240 | 3.2 | 3.2 | 0.00 | 0.00 | 0.00 | 75 | 1016.2 |
| 20260504224208 | 28 | 250 | 0.0 | 1.6 | 0.00 | 0.00 | 0.00 | 75 | 1016.3 |
| 20260504223704 | 28 | 256 | 0.0 | 0.0 | 0.00 | 0.00 | 0.00 | 75 | 1016.3 |
| 20260504223200 | 28 | 286 | 0.0 | 1.6 | 0.00 | 0.00 | 0.00 | 75 | 1016.3 |
| 20260504222657 | 28 | 271 | 3.2 | 4.8 | 0.00 | 0.00 | 0.00 | 76 | 1016.1 |
| 20260504222153 | 28 | 267 | 0.0 | 1.6 | 0.00 | 0.00 | 0.00 | 75 | 1016.1 |
| 20260504221651 | 28 | 211 | 6.4 | 9.7 | 0.00 | 0.00 | 0.00 | 75 | 1016.1 |
| 20260504221148 | 28 | 179 | 9.7 | 12.9 | 0.00 | 0.00 | 0.00 | 74 | 1016.0 |
| 20260504220644 | 28 | 178 | 8.0 | 9.7 | 0.00 | 0.00 | 0.00 | 74 | 1016.0 |
| 20260504220142 | 28 | 222 | 6.4 | 9.7 | 0.00 | 0.00 | 0.00 | 73 | 1015.9 |
| 20260504215638 | 28 | 258 | 3.2 | 4.8 | 0.00 | 0.00 | 0.00 | 72 | 1015.8 |
| 20260504215136 | 28 | 216 | 6.4 | 11.3 | 0.00 | 0.00 | 0.00 | 73 | 1015.8 |
| 20260504214631 | 28 | 167 | 12.9 | 14.5 | 0.00 | 0.00 | 0.00 | 72 | 1015.9 |
| 20260504214128 | 28 | 217 | 6.4 | 6.4 | 0.00 | 0.00 | 0.00 | 72 | 1015.6 |
| 20260504213625 | 28 | 220 | 6.4 | 9.7 | 0.00 | 0.00 | 0.00 | 72 | 1015.6 |
| 20260504213121 | 29 | 253 | 3.2 | 6.4 | 0.00 | 0.00 | 0.00 | 72 | 1015.6 |
| 20260504212618 | 28 | 237 | 6.4 | 6.4 | 0.00 | 0.00 | 0.00 | 73 | 1015.8 |
| 20260504212115 | 28 | 229 | 11.3 | 12.9 | 0.00 | 0.00 | 0.00 | 72 | 1015.7 |
| 20260504211612 | 28 | 188 | 9.7 | 12.9 | 0.00 | 0.00 | 0.00 | 72 | 1015.7 |
| 20260504211109 | 29 | 197 | 3.2 | 4.8 | 0.00 | 0.00 | 0.00 | 71 | 1015.6 |
| 20260504210606 | 29 | 269 | 6.4 | 9.7 | 0.00 | 0.00 | 0.00 | 70 | 1015.7 |
| 20260504205601 | 29 | 207 | 9.7 | 14.5 | 0.00 | 0.00 | 0.00 | 70 | 1015.4 |
| 20260504205058 | 30 | 180 | 1.6 | 3.2 | 0.00 | 0.00 | 0.00 | 68 | 1015.5 |
| 20260504204555 | 29 | 271 | 4.8 | 9.7 | 0.00 | 0.00 | 0.00 | 70 | 1015.6 |
| 20260504204055 | 29 | 220 | 8.0 | 11.3 | 0.00 | 0.00 | 0.00 | 69 | 1015.5 |
| 20260504203552 | 29 | 190 | 6.4 | 9.7 | 0.00 | 0.00 | 0.00 | 69 | 1015.5 |
| 20260504203050 | 29 | 237 | 8.0 | 11.3 | 0.00 | 0.00 | 0.00 | 70 | 1015.6 |
| 20260504202545 | 30 | 198 | 3.2 | 4.8 | 0.00 | 0.00 | 0.00 | 69 | 1015.4 |
| 20260504202042 | 29 | 236 | 6.4 | 11.3 | 0.00 | 0.00 | 0.00 | 69 | 1015.5 |
| 20260504201539 | 29 | 159 | 8.0 | 11.3 | 0.00 | 0.00 | 0.00 | 67 | 1015.5 |
| 20260504201037 | 30 | 257 | 8.0 | 11.3 | 0.00 | 0.00 | 0.00 | 67 | 1015.5 |
| 20260504200533 | 30 | 172 | 9.7 | 11.3 | 0.00 | 0.00 | 0.00 | 68 | 1015.6 |
| 20260504200030 | 30 | 241 | 3.2 | 4.8 | 0.00 | 0.00 | 0.00 | 68 | 1015.7 |
| 20260504195526 | 30 | 241 | 3.2 | 4.8 | 0.00 | 0.00 | 0.00 | 66 | 1015.8 |
| 20260504195023 | 30 | 237 | 3.2 | 4.8 | 0.00 | 0.00 | 0.00 | 66 | 1015.6 |
| 20260504194519 | 30 | 254 | 11.3 | 12.9 | 0.00 | 0.00 | 0.00 | 65 | 1015.8 |
| 20260504194014 | 30 | 291 | 1.6 | 3.2 | 0.00 | 0.00 | 0.00 | 64 | 1015.8 |
| 20260504193511 | 31 | 229 | 3.2 | 4.8 | 0.00 | 0.00 | 0.00 | 63 | 1015.6 |
| 20260504193010 | 30 | 222 | 6.4 | 9.7 | 0.00 | 0.00 | 0.00 | 66 | 1015.9 |
| 20260504192508 | 30 | 207 | 9.7 | 14.5 | 0.00 | 0.00 | 0.00 | 66 | 1015.9 |
| 20260504192006 | 30 | 220 | 14.5 | 17.7 | 0.00 | 0.00 | 0.00 | 68 | 1016.0 |
| 20260504191503 | 30 | 247 | 8.0 | 12.9 | 0.00 | 0.00 | 0.00 | 70 | 1016.0 |
| 20260504190959 | 30 | 196 | 9.7 | 12.9 | 0.00 | 0.00 | 0.00 | 69 | 1015.9 |
| 20260504190455 | 30 | 189 | 8.0 | 12.9 | 0.00 | 0.00 | 0.00 | 69 | 1015.9 |
| 20260504185952 | 30 | 190 | 9.7 | 11.3 | 0.00 | 0.00 | 0.00 | 66 | 1016.0 |
| 20260504185449 | 31 | 263 | 3.2 | 3.2 | 0.00 | 0.00 | 0.00 | 64 | 1016.0 |
| 20260504184945 | 30 | 192 | 6.4 | 9.7 | 0.00 | 0.00 | 0.00 | 65 | 1016.1 |
| 20260504184441 | 31 | 180 | 12.9 | 17.7 | 0.00 | 0.00 | 0.00 | 65 | 1015.9 |
| 20260504183936 | 30 | 240 | 9.7 | 11.3 | 0.00 | 0.00 | 0.00 | 67 | 1016.4 |
| 20260504183434 | 30 | 222 | 8.0 | 12.9 | 0.00 | 0.00 | 0.00 | 65 | 1016.3 |
| 20260504182932 | 30 | 199 | 9.7 | 16.1 | 0.00 | 0.00 | 0.00 | 67 | 1016.1 |
| 20260504182429 | 30 | 166 | 4.8 | 6.4 | 0.00 | 0.00 | 0.00 | 66 | 1016.3 |
| 20260504181926 | 30 | 224 | 8.0 | 11.3 | 0.00 | 0.00 | 0.00 | 66 | 1016.5 |
| 20260504181423 | 31 | 254 | 8.0 | 11.3 | 0.00 | 0.00 | 0.00 | 64 | 1016.4 |
| 20260504180922 | 30 | 218 | 12.9 | 14.5 | 0.00 | 0.00 | 0.00 | 68 | 1016.5 |
| 20260504180420 | 31 | 241 | 1.6 | 1.6 | 0.00 | 0.00 | 0.00 | 62 | 1016.4 |
| 20260504175918 | 30 | 236 | 11.3 | 14.5 | 0.00 | 0.00 | 0.00 | 64 | 1016.5 |
| 20260504175414 | 30 | 206 | 8.0 | 9.7 | 0.00 | 0.00 | 0.00 | 64 | 1016.7 |
| 20260504174912 | 30 | 179 | 11.3 | 20.9 | 0.00 | 0.00 | 0.00 | 67 | 1016.6 |
| 20260504174410 | 31 | 188 | 9.7 | 12.9 | 0.00 | 0.00 | 0.00 | 64 | 1016.6 |
| 20260504173907 | 31 | 273 | 6.4 | 11.3 | 0.00 | 0.00 | 0.00 | 65 | 1016.7 |
| 20260504173403 | 30 | 197 | 9.7 | 12.9 | 0.00 | 0.00 | 0.00 | 65 | 1016.8 |
| 20260504172900 | 30 | 241 | 6.4 | 12.9 | 0.00 | 0.00 | 0.00 | 67 | 1016.8 |
| 20260504172357 | 31 | 208 | 8.0 | 11.3 | 0.00 | 0.00 | 0.00 | 65 | 1016.9 |
| 20260504171852 | 31 | 216 | 14.5 | 20.9 | 0.00 | 0.00 | 0.00 | 65 | 1016.8 |
| 20260504171350 | 31 | 223 | 14.5 | 22.5 | 0.00 | 0.00 | 0.00 | 64 | 1017.1 |
| 20260504170847 | 30 | 157 | 8.0 | 16.1 | 0.00 | 0.00 | 0.00 | 66 | 1017.1 |
| 20260504170344 | 31 | 216 | 6.4 | 9.7 | 0.00 | 0.00 | 0.00 | 63 | 1017.2 |
| 20260504160302 | 31 | 134 | 9.7 | 12.9 | 0.00 | 0.00 | 0.00 | 58 | 1017.7 |
| 20260504150728 | 31 | 237 | 4.8 | 9.7 | 0.00 | 0.00 | 0.00 | 57 | 1017.8 |
| 20260504150224 | 31 | 181 | 6.4 | 11.3 | 0.00 | 0.00 | 0.00 | 57 | 1017.9 |
| 20260504141154 | 31 | 189 | 14.5 | 20.9 | 0.00 | 0.00 | 0.00 | 59 | 1017.7 |
| 20260504140650 | 30 | 305 | 3.2 | 3.2 | 0.00 | 0.00 | 0.00 | 59 | 1017.7 |
| 20260504140146 | 30 | 109 | 11.3 | 12.9 | 0.00 | 0.00 | 0.00 | 60 | 1017.7 |
| 20260504130614 | 30 | 233 | 8.0 | 12.9 | 0.00 | 0.00 | 0.00 | 63 | 1017.7 |
| 20260504130111 | 30 | 296 | 4.8 | 6.4 | 0.00 | 0.00 | 0.00 | 63 | 1017.6 |
| 20260504110502 | 25 | 327 | 1.6 | 1.6 | 0.00 | 0.00 | 0.00 | 81 | 1017.5 |
| 20260504100424 | 22 | 68 | 3.2 | 4.8 | 0.00 | 0.00 | 0.00 | 88 | 1017.1 |